Torna al catalogo

STARLINK-37417

AttivoComunicazioniSSO
NORAD 68770·PAYLOAD·🇺🇸 United States

Lanciato Apr 19, 2026 da Vandenberg Space Force Base

Loading…

Prossimi Passaggi (prossime 24 ore)

TLE

AggiornatoSource: CelesTrak SupGP

Epoca: Sep 14, 2026, 22:48 UTC

1 68770C 26086E   26257.95048611  .00021324  00000+0  66203-3 0  2574
2 68770  97.2839 293.4213 0001018  93.0980 208.7457 15.33425410    13

Traccia STARLINK-37417 in tempo reale con AllMySat

Download on the App Store